Simultaneous Nadir Overpasses (SNOs) Predictions

Prediction of SNOs between GOES-14 and AQUA Satellite Orbit:

Table of predicted SNOs for the next 14.0 days since TLE Epoch: 4/22/2023
Index Date Time (GOES-14) GOES-14 Lat,Lon AQUA Lat,Lon Distance(km) Time Diff (sec)
1 04/22/2023 08:52:54 0.17,-108.23 -0.12,-106.74 168.40 80
2 04/22/2023 21:13:53 -0.16,-108.22 -0.92,-111.83 410.97 80
3 04/24/2023 21:00:01 -0.16,-108.23 -0.20,-108.45 24.49 80
4 04/26/2023 20:48:48 -0.17,-108.25 0.51,-105.06 362.38 80
5 04/27/2023 09:09:37 0.16,-108.28 0.58,-110.10 208.35 80
6 04/29/2023 08:53:04 0.17,-108.29 -0.19,-106.72 178.87 80
7 04/29/2023 21:14:00 -0.16,-108.26 -0.92,-111.80 401.73 80
8 05/01/2023 21:00:06 -0.16,-108.28 -0.20,-108.40 13.62 80
9 05/03/2023 20:48:51 -0.17,-108.30 0.56,-105.01 374.92 80
10 05/04/2023 09:09:39 0.15,-108.35 0.50,-110.06 193.99 80
